Powrót do katalogu

AAC-HSI-SAT3

AktywnyNaukaSSO
NORAD 58848·PAYLOAD·🇬🇧 United Kingdom

Wystrzelony Nov 11, 2023 z Vandenberg Space Force Base

Loading…

Następne Przeloty (najbliższe 24 godziny)

TLE

ŚwieżeSource: Space-Track

Epoka: Sep 14, 2026, 15:29 UTC

1 58848U 23174DH  26257.64569728  .00001743  00000-0  93598-4 0  9992
2 58848  97.3319 314.0587 0011894  61.5791 298.6640 15.16136701157455

Śledź AAC-HSI-SAT3 w czasie rzeczywistym z AllMySat

Download on the App Store